EW2082 Weather Reports


Display with metric or nautical units.
time (UTC)temp
F
wind
direction
speed
MPH
gust
MPH
rain 1hr
in
rain 24hr
in
rain mn
in
humidity
%
barometer
mb
20260507223004 75 10 0.0 4.0 0.00 0.00 0.00 62 1012.6
20260507222004 75 253 2.0 5.0 0.00 0.00 0.00 62 1012.7
20260507220006 76 21 0.0 5.0 0.00 0.00 0.00 61 1013.0
20260507215004 76 325 0.0 6.0 0.00 0.00 0.00 59 1013.0
20260507214004 77 4 2.0 5.0 0.00 0.00 0.00 58 1013.2
20260507212004 77 340 1.0 2.0 0.00 0.00 0.00 59 1013.3
20260507211004 76 288 0.0 5.0 0.00 0.00 0.00 62 1013.4
20260507210005 77 300 4.0 4.0 0.00 0.00 0.00 59 1013.6
20260507205004 77 269 0.0 4.0 0.00 0.00 0.00 61 1013.7
20260507203004 78 21 0.0 2.0 0.00 0.00 0.00 58 1013.8
20260507202004 78 293 0.0 2.0 0.00 0.00 0.00 59 1013.7
20260507201003 78 4 0.0 5.0 0.00 0.00 0.00 58 1013.9
20260507200005 79 120 0.0 1.0 0.00 0.00 0.00 58 1014.0
20260507194003 78 143 0.0 0.0 0.00 0.00 0.00 55 1014.4
20260507193004 78 225 0.0 3.0 0.00 0.00 0.00 55 1014.4
20260507192003 78 108 0.0 2.0 0.00 0.00 0.00 56 1014.4
20260507191003 78 165 0.0 3.0 0.00 0.00 0.00 57 1014.6
20260507185003 77 172 0.0 1.0 0.00 0.00 0.00 58 1014.6
20260507184004 77 166 0.0 2.0 0.00 0.00 0.00 58 1014.7
20260507182004 77 79 0.0 2.0 0.00 0.00 0.00 58 1014.6
20260507181003 77 217 0.0 2.0 0.00 0.00 0.00 59 1014.7
20260507180004 76 125 0.0 3.0 0.00 0.00 0.00 60 1014.8
20260507175003 75 195 0.0 2.0 0.00 0.00 0.00 60 1014.7
20260507174003 75 150 0.0 0.0 0.00 0.00 0.00 63 1014.8
20260507173004 75 319 0.0 1.0 0.00 0.00 0.00 61 1014.8
20260507172004 74 162 0.0 2.0 0.00 0.00 0.00 61 1014.9
20260507171005 74 182 0.0 2.0 0.00 0.00 0.00 64 1014.8
20260507170005 74 103 0.0 2.0 0.00 0.00 0.00 63 1014.8
20260507165004 74 224 2.0 3.0 0.00 0.00 0.00 63 1014.9
20260507160006 71 8 0.0 0.0 0.00 0.00 0.00 69 1015.3
20260507155005 70 46 0.0 0.0 0.00 0.00 0.00 69 1015.3
20260507152004 68 43 0.0 0.0 0.00 0.00 0.00 73 1015.4
20260507151004 67 28 0.0 0.0 0.00 0.00 0.00 75 1015.3
20260507150005 67 28 0.0 0.0 0.00 0.00 0.00 77 1015.3
20260507145005 65 28 0.0 0.0 0.00 0.00 0.00 83 1015.2
20260507144004 64 28 0.0 0.0 0.00 0.00 0.00 83 1015.2
20260507141004 57 5 0.0 0.0 0.00 0.00 0.00 93 1015.0
20260507135005 55 5 0.0 0.0 0.00 0.00 0.00 93 1014.7
20260507134004 55 5 0.0 0.0 0.00 0.00 0.00 93 1014.6
20260507133005 54 5 0.0 0.0 0.00 0.00 0.00 93 1014.4
20260507132005 54 5 0.0 0.0 0.00 0.00 0.00 93 1014.5
20260507130006 54 5 0.0 0.0 0.00 0.00 0.00 92 1014.4
20260507124004 54 5 0.0 0.0 0.00 0.00 0.00 92 1014.3
20260507123004 54 5 0.0 0.0 0.00 0.00 0.00 92 1014.3
20260507122005 54 5 0.0 0.0 0.00 0.00 0.00 92 1014.3
20260507121004 54 5 0.0 0.0 0.00 0.00 0.00 92 1014.4
20260507120006 54 5 0.0 0.0 0.00 0.00 0.00 92 1014.4
20260507115005 54 5 0.0 0.0 0.00 0.00 0.00 92 1014.5
20260507114004 54 5 0.0 0.0 0.00 0.00 0.00 92 1014.6
20260507113005 54 5 0.0 0.0 0.00 0.00 0.00 92 1014.5
20260507112005 54 5 0.0 0.0 0.00 0.00 0.00 92 1014.6
20260507111005 55 5 0.0 0.0 0.00 0.00 0.00 92 1014.7
20260507105004 56 5 0.0 0.0 0.00 0.00 0.00 92 1014.9
20260507104004 56 5 0.0 0.0 0.00 0.00 0.00 92 1014.9
20260507103005 56 5 0.0 0.0 0.00 0.00 0.00 92 1014.9
20260507102006 56 5 0.0 0.0 0.00 0.00 0.00 92 1015.0
20260507101004 56 5 0.0 0.0 0.00 0.00 0.00 92 1015.0
20260507100005 56 5 0.0 0.0 0.00 0.00 0.00 91 1014.9
20260507093005 58 5 0.0 0.0 0.00 0.00 0.00 91 1015.2
20260507092005 58 5 0.0 0.0 0.00 0.00 0.00 90 1015.3
20260507091004 58 5 0.0 0.0 0.00 0.00 0.00 90 1015.4
20260507090005 58 5 0.0 0.0 0.00 0.00 0.00 90 1015.5
20260507085004 58 5 0.0 0.0 0.00 0.00 0.00 89 1015.5
20260507084004 58 5 0.0 0.0 0.00 0.00 0.00 88 1015.5
20260507083004 59 5 0.0 0.0 0.00 0.00 0.00 88 1015.5
20260507081003 59 5 0.0 0.0 0.00 0.00 0.00 87 1015.7
20260507075004 59 8 0.0 0.0 0.00 0.00 0.00 86 1015.9
20260507073004 59 233 0.0 0.0 0.00 0.00 0.00 89 1016.0
20260507072004 59 258 0.0 0.0 0.00 0.00 0.00 89 1016.1
20260507070010 59 258 0.0 1.0 0.00 0.00 0.00 90 1016.0
20260507065004 59 258 0.0 1.0 0.00 0.00 0.00 89 1016.0
20260507064004 60 258 0.0 1.0 0.00 0.00 0.00 89 1016.1
20260507063004 60 339 0.0 0.0 0.00 0.00 0.00 89 1016.2
20260507062004 60 339 0.0 0.0 0.00 0.00 0.00 89 1016.3
20260507061004 60 339 0.0 0.0 0.00 0.00 0.00 88 1016.2
20260507060004 60 339 0.0 1.0 0.00 0.00 0.00 88 1016.3
20260507055004 60 89 0.0 0.0 0.00 0.00 0.00 88 1016.1
20260507053005 60 82 0.0 1.0 0.00 0.00 0.00 86 1016.2
20260507052005 61 271 0.0 1.0 0.00 0.00 0.00 85 1016.2
20260507051003 61 253 0.0 0.0 0.00 0.00 0.00 84 1016.2
20260507050006 61 253 0.0 1.0 0.00 0.00 0.00 83 1016.1
20260507045005 61 254 0.0 2.0 0.00 0.00 0.00 83 1016.1
20260507044005 61 32 1.0 3.0 0.00 0.00 0.00 85 1016.1
20260507042005 61 303 1.0 4.0 0.00 0.00 0.00 86 1015.9
20260507041004 61 257 1.0 3.0 0.00 0.00 0.00 85 1015.8
20260507040005 61 281 0.0 1.0 0.00 0.00 0.00 85 1015.8
20260507035005 62 218 0.0 1.0 0.00 0.00 0.00 85 1015.6
20260507034005 62 357 0.0 2.0 0.00 0.00 0.00 84 1015.4
20260507033006 62 219 0.0 2.0 0.00 0.00 0.00 85 1015.3
20260507032004 62 267 0.0 4.0 0.00 0.00 0.00 84 1015.3
20260507030005 63 18 0.0 1.0 0.00 0.00 0.00 81 1015.0
20260507025004 63 257 0.0 2.0 0.00 0.00 0.00 78 1015.1
20260507024005 64 16 0.0 3.0 0.00 0.00 0.00 75 1014.8
20260507023004 64 329 0.0 3.0 0.00 0.00 0.00 72 1014.9
20260507021004 65 78 0.0 2.0 0.00 0.00 0.00 74 1014.8
20260507020005 66 15 0.0 3.0 0.00 0.00 0.00 71 1014.6
20260507015004 68 353 0.0 1.0 0.00 0.00 0.00 68 1014.6
20260507014005 68 286 0.0 2.0 0.00 0.00 0.00 68 1014.6
20260507013005 68 41 0.0 2.0 0.00 0.00 0.00 67 1014.5
20260507012004 68 32 0.0 5.0 0.00 0.00 0.00 64 1014.4
20260507011004 69 335 0.0 5.0 0.00 0.00 0.00 65 1014.4
20260507010006 69 32 0.0 6.0 0.00 0.00 0.00 65 1014.4
20260507005005 69 17 2.0 4.0 0.00 0.00 0.00 64 1014.3
20260507004005 69 30 0.0 4.0 0.00 0.00 0.00 65 1014.4
20260507003005 70 9 1.0 5.0 0.00 0.00 0.00 65 1014.4
20260507002004 70 291 0.0 6.0 0.00 0.00 0.00 65 1014.3
20260507001004 70 323 0.0 6.0 0.00 0.00 0.00 64 1014.3
20260507000004 70 280 4.0 8.0 0.00 0.00 0.00 64 1014.4
20260506235004 71 292 4.0 9.0 0.00 0.00 0.00 66 1014.4
20260506234004 72 278 5.0 8.0 0.00 0.00 0.00 61 1014.4
20260506233004 73 13 1.0 6.0 0.00 0.00 0.00 61 1014.4
20260506232004 73 46 1.0 5.0 0.00 0.00 0.00 60 1014.4
20260506231004 73 32 0.0 4.0 0.00 0.00 0.00 60 1014.5
20260506230004 73 79 0.0 6.0 0.00 0.00 0.00 60 1014.5
20260506224004 74 11 0.0 5.0 0.00 0.00 0.00 57 1014.8